Weather in Dalian

China     38˚57′55″N   121˚32′17″E
temp.,
°C
wind,
m/s
gust,
m/s
humid.,
%
clouds,
%
prec.,
mm/h
press.,
hPa
HPBL,
m
1 december, tue
tue123:00nne4553100 0.0 1040604
02:00+1˚nne355386 0.0 1039601
05:00ne345415 0.0 1039547
08:00ene234224 0.0 1039380
11:00+2˚ene223496 0.0 1039451
14:00+2˚n114098 0.0 1037643
17:00+2˚nne2147100 0.0 1036559
20:00+2˚ene1251100 0.0 1036498
2 december, wed
wed223:00+1˚se1153100 0.0 1036371
02:00+1˚e2156100 0.0 1035295
05:00+1˚ne2359100 0.0 1034293
08:00+1˚ne3456100 0.0 1034386
11:00+2˚ne4451100 0.0 1034508
14:00+2˚nne554999 0.0 1033778
17:00+2˚n5652100 0.0 1033919
20:00+1˚n5652100 0.0 1034989
3 december, thu
thu323:00+1˚n574668 0.0 10341295
02:00+1˚n785268 0.0 10341356
05:00n7954100 0.0 10351372
08:00n7854100 0.0 10361385
11:00+1˚nnw6850100 0.0 10361418
14:00+1˚nnw785097 0.0 10341381
17:00+1˚nnw794924 0.0 10351301
20:00+1˚nnw684612 0.0 10351322
4 december, fri
fri423:00+1˚nnw67479 0.0 1034981
02:00+1˚nnw46494 0.0 1033832
05:00+1˚nnw34470 0.0 1032618
08:00+1˚e124612 0.0 1033388
11:00+3˚w474884 0.0 10321443
14:00+3˚wnw8104857 0.0 10301369
17:00+2˚wnw79490 0.0 10291430
20:00+2˚wnw79497 0.0 10301449
5 december, sat
sat523:00+2˚wnw79547 0.0 10301191
02:00+2˚wnw69493 0.0 1030949
05:00+2˚w58490 0.0 1029741
08:00+3˚w58470 0.0 1030782
11:00+4˚w68440 0.0 10301255
14:00+5˚w78430 0.0 10291259
17:00+4˚w58430 0.0 10291160
20:00+4˚wsw58530 0.0 1030787